BCS22W LEAL-LEVT

Flight info

Callsign BCS22W
Flight time 1h 3m
Altitude 32000
Route CATON N733 CJN L150 RBO N867 DGO
Aircraft B738/M-SDFGHIJ1RWY/LB1

Departure

Time 2026-05-04 17:14
Airport Alicante-Elche Miguel Hernández Airport (LEAL)

Arrival

Time 2026-05-04 18:17
Airport Vitoria Airport (LEVT)
Time Latitude Longitude Altitude Speed Heading
2026-05-04 16:17 38.28631 -0.56670 123 ft 0 kts 280°
2026-05-04 17:04 38.28632 -0.56608 116 ft 4 kts 242°
2026-05-04 17:05 38.28655 -0.56585 118 ft 1 kts 191°
2026-05-04 17:08 38.28653 -0.56585 118 ft 1 kts 191°
2026-05-04 17:08 38.28608 -0.56596 115 ft 7 kts 190°
2026-05-04 17:08 38.28551 -0.56609 117 ft 8 kts 190°
2026-05-04 17:09 38.28515 -0.56640 118 ft 7 kts 248°
2026-05-04 17:09 38.28519 -0.56706 118 ft 7 kts 280°
2026-05-04 17:09 38.28527 -0.56768 124 ft 7 kts 280°
2026-05-04 17:10 38.28544 -0.56889 130 ft 7 kts 281°
2026-05-04 17:10 38.28570 -0.57069 138 ft 8 kts 280°
2026-05-04 17:11 38.28581 -0.57149 142 ft 10 kts 280°
2026-05-04 17:11 38.28595 -0.57245 146 ft 12 kts 280°
2026-05-04 17:11 38.28618 -0.57458 152 ft 12 kts 257°
2026-05-04 17:12 38.28553 -0.57510 156 ft 12 kts 190°
2026-05-04 17:12 38.28447 -0.57461 154 ft 11 kts 101°
2026-05-04 17:13 38.28126 -0.55114 279 ft 159 kts 101°
2026-05-04 17:14 38.27395 -0.50676 1841 ft 202 kts 104°
2026-05-04 17:14 38.27104 -0.48884 2384 ft 212 kts 104°
2026-05-04 17:14 38.26451 -0.44824 3197 ft 248 kts 104°
2026-05-04 17:15 38.26109 -0.42665 3995 ft 250 kts 104°
2026-05-04 17:15 38.25409 -0.38246 5532 ft 259 kts 103°
2026-05-04 17:16 38.24680 -0.33666 7049 ft 268 kts 103°
2026-05-04 17:16 38.20588 -0.29989 9365 ft 264 kts 191°
2026-05-04 17:17 38.18911 -0.30815 10277 ft 256 kts 218°
2026-05-04 17:17 38.17564 -0.36753 12992 ft 258 kts 287°
2026-05-04 17:18 38.18092 -0.38164 13226 ft 277 kts 294°
2026-05-04 17:18 38.20244 -0.42798 13680 ft 328 kts 296°
2026-05-04 17:19 38.22653 -0.47900 15133 ft 340 kts 295°
2026-05-04 17:19 38.25061 -0.53135 16789 ft 346 kts 294°
2026-05-04 17:20 38.27952 -0.58140 18269 ft 370 kts 315°
2026-05-04 17:20 38.32162 -0.61947 20074 ft 368 kts 317°
2026-05-04 17:20 38.34272 -0.63812 20809 ft 371 kts 317°
2026-05-04 17:21 38.38569 -0.67667 21986 ft 382 kts 316°
2026-05-04 17:21 38.42932 -0.71619 23242 ft 388 kts 316°
2026-05-04 17:22 38.45139 -0.73627 23839 ft 392 kts 316°
2026-05-04 17:22 38.47369 -0.75657 24416 ft 396 kts 315°
2026-05-04 17:23 38.54122 -0.81813 26096 ft 403 kts 315°
2026-05-04 17:23 38.56414 -0.83907 26580 ft 406 kts 315°
2026-05-04 17:23 38.60990 -0.88084 27929 ft 400 kts 315°
2026-05-04 17:24 38.63243 -0.90142 28643 ft 396 kts 314°
2026-05-04 17:24 38.69919 -0.96267 30453 ft 390 kts 314°
2026-05-04 17:25 38.72122 -0.98288 30991 ft 389 kts 314°
2026-05-04 17:25 38.77407 -1.00767 31894 ft 424 kts 340°
2026-05-04 17:26 38.83324 -1.01893 31921 ft 431 kts 342°
2026-05-04 17:27 38.97964 -1.04633 31929 ft 427 kts 341°
2026-05-04 17:28 39.09712 -1.06968 31926 ft 426 kts 341°
2026-05-04 17:29 39.27209 -1.10455 31929 ft 425 kts 341°
2026-05-04 17:31 39.41873 -1.13398 31925 ft 427 kts 342°
2026-05-04 17:32 39.56557 -1.16351 31922 ft 427 kts 342°
2026-05-04 17:33 39.68255 -1.18716 31940 ft 426 kts 342°
2026-05-04 17:34 39.79601 -1.21999 31957 ft 393 kts 315°
2026-05-04 17:35 39.84385 -1.29850 31957 ft 364 kts 290°
2026-05-04 17:35 39.86820 -1.35632 31949 ft 368 kts 290°
2026-05-04 17:36 39.89340 -1.41460 31958 ft 370 kts 291°
2026-05-04 17:36 39.91881 -1.47318 31950 ft 371 kts 290°
2026-05-04 17:37 39.94404 -1.53182 31948 ft 370 kts 290°
2026-05-04 17:37 39.96903 -1.59003 31951 ft 370 kts 290°
2026-05-04 17:38 39.99416 -1.64861 31959 ft 369 kts 290°
2026-05-04 17:38 40.01918 -1.70708 31960 ft 369 kts 290°
2026-05-04 17:39 40.05668 -1.79495 31957 ft 369 kts 290°
2026-05-04 17:39 40.08149 -1.85324 31950 ft 369 kts 290°
2026-05-04 17:40 40.10642 -1.91190 31958 ft 369 kts 290°
2026-05-04 17:40 40.13128 -1.97046 31964 ft 368 kts 290°
2026-05-04 17:41 40.15616 -2.02918 31961 ft 369 kts 290°
2026-05-04 17:41 40.18119 -2.08788 31966 ft 369 kts 290°
2026-05-04 17:42 40.20617 -2.14658 31969 ft 369 kts 290°
2026-05-04 17:42 40.23083 -2.20514 31951 ft 369 kts 290°
2026-05-04 17:43 40.25542 -2.26415 31937 ft 369 kts 290°
2026-05-04 17:43 40.27993 -2.32301 31951 ft 368 kts 290°
2026-05-04 17:44 40.30443 -2.38194 31956 ft 368 kts 290°
2026-05-04 17:44 40.32896 -2.44102 31957 ft 369 kts 290°
2026-05-04 17:45 40.35334 -2.49985 31951 ft 369 kts 290°
2026-05-04 17:45 40.38025 -2.55772 31952 ft 379 kts 301°
2026-05-04 17:46 40.41575 -2.60923 31957 ft 383 kts 304°
2026-05-04 17:46 40.45197 -2.66077 31951 ft 384 kts 304°
2026-05-04 17:47 40.48803 -2.71254 31955 ft 384 kts 304°
2026-05-04 17:47 40.52375 -2.76423 31966 ft 384 kts 304°
2026-05-04 17:48 40.55966 -2.81633 31958 ft 384 kts 304°
2026-05-04 17:48 40.59550 -2.86841 31957 ft 383 kts 304°
2026-05-04 17:49 40.63123 -2.92046 31964 ft 382 kts 304°
2026-05-04 17:49 40.66689 -2.97250 31951 ft 382 kts 304°
2026-05-04 17:50 40.70227 -3.02423 31935 ft 382 kts 304°
2026-05-04 17:50 40.73785 -3.07622 31946 ft 382 kts 304°
2026-05-04 17:51 40.77338 -3.12839 31901 ft 383 kts 304°
2026-05-04 17:51 40.79120 -3.15459 31617 ft 382 kts 304°
2026-05-04 17:51 40.80890 -3.18057 31377 ft 380 kts 304°
2026-05-04 17:52 40.82664 -3.20641 31126 ft 382 kts 307°
2026-05-04 17:52 40.84857 -3.22750 30850 ft 402 kts 328°
2026-05-04 17:52 40.87571 -3.23836 30616 ft 417 kts 346°
2026-05-04 17:52 40.90517 -3.23756 30391 ft 430 kts
2026-05-04 17:53 40.93471 -3.23082 30149 ft 431 kts
2026-05-04 17:53 40.96423 -3.22329 29887 ft 430 kts
2026-05-04 17:53 40.99319 -3.21610 29645 ft 428 kts
2026-05-04 17:53 41.02246 -3.20929 29387 ft 425 kts
2026-05-04 17:54 41.05146 -3.20277 29127 ft 419 kts
2026-05-04 17:54 41.08010 -3.19640 28889 ft 414 kts
2026-05-04 17:54 41.10830 -3.19003 28562 ft 409 kts
2026-05-04 17:54 41.13622 -3.18370 28186 ft 405 kts
2026-05-04 17:55 41.16395 -3.17743 27789 ft 403 kts
2026-05-04 17:55 41.19149 -3.17119 27398 ft 400 kts
2026-05-04 17:55 41.21893 -3.16496 27001 ft 398 kts
2026-05-04 17:55 41.24609 -3.15879 26623 ft 395 kts
2026-05-04 17:56 41.27311 -3.15265 26226 ft 392 kts
2026-05-04 17:56 41.29956 -3.14664 25845 ft 389 kts
2026-05-04 17:56 41.32618 -3.14059 25456 ft 386 kts
2026-05-04 17:56 41.35265 -3.13458 25072 ft 385 kts
2026-05-04 17:57 41.37893 -3.12859 24677 ft 382 kts
2026-05-04 17:57 41.40509 -3.12261 24291 ft 380 kts
2026-05-04 17:57 41.43111 -3.11667 23902 ft 378 kts
2026-05-04 17:57 41.45700 -3.11075 23515 ft 375 kts
2026-05-04 17:58 41.48272 -3.10487 23133 ft 373 kts
2026-05-04 17:58 41.50818 -3.09904 22751 ft 371 kts
2026-05-04 17:58 41.53352 -3.09329 22375 ft 368 kts
2026-05-04 17:58 41.55843 -3.08766 22001 ft 366 kts
2026-05-04 17:59 41.58348 -3.08200 21630 ft 364 kts
2026-05-04 17:59 41.60833 -3.07638 21247 ft 362 kts
2026-05-04 17:59 41.65770 -3.06520 20504 ft 358 kts
2026-05-04 18:00 41.68216 -3.05965 20112 ft 356 kts
2026-05-04 18:00 41.70650 -3.05411 19758 ft 353 kts
2026-05-04 18:00 41.73067 -3.04861 19392 ft 351 kts
2026-05-04 18:00 41.75468 -3.04312 19026 ft 349 kts
2026-05-04 18:01 41.77857 -3.03765 18657 ft 347 kts
2026-05-04 18:01 41.80242 -3.03217 18289 ft 346 kts
2026-05-04 18:01 41.82607 -3.02672 17933 ft 344 kts
2026-05-04 18:02 41.87281 -3.01596 17214 ft 342 kts
2026-05-04 18:02 41.89621 -3.01056 16848 ft 340 kts
2026-05-04 18:02 41.91947 -3.00518 16484 ft 338 kts
2026-05-04 18:02 41.94255 -2.99982 16129 ft 336 kts
2026-05-04 18:03 41.96556 -2.99451 15778 ft 334 kts
2026-05-04 18:03 41.98844 -2.98921 15426 ft 333 kts
2026-05-04 18:03 42.01117 -2.98398 15074 ft 331 kts
2026-05-04 18:03 42.03393 -2.97875 14712 ft 331 kts
2026-05-04 18:04 42.05660 -2.97348 14349 ft 330 kts
2026-05-04 18:04 42.07918 -2.96822 14004 ft 328 kts
2026-05-04 18:04 42.12405 -2.95783 13267 ft 326 kts
2026-05-04 18:05 42.14631 -2.95269 12910 ft 323 kts
2026-05-04 18:05 42.16839 -2.94754 12553 ft 322 kts
2026-05-04 18:05 42.19038 -2.94241 12214 ft 320 kts
2026-05-04 18:05 42.21208 -2.93737 11824 ft 321 kts
2026-05-04 18:06 42.25593 -2.92713 11102 ft 318 kts
2026-05-04 18:06 42.27766 -2.92205 10751 ft 315 kts
2026-05-04 18:06 42.29920 -2.91704 10392 ft 314 kts
2026-05-04 18:07 42.32062 -2.91199 10144 ft 307 kts
2026-05-04 18:07 42.34139 -2.90712 9996 ft 299 kts
2026-05-04 18:07 42.35494 -2.90396 9774 ft 298 kts
2026-05-04 18:07 42.38207 -2.89762 9365 ft 294 kts
2026-05-04 18:08 42.39537 -2.89449 9159 ft 293 kts
2026-05-04 18:08 42.41536 -2.88983 8848 ft 290 kts
2026-05-04 18:08 42.43517 -2.88523 8534 ft 288 kts
2026-05-04 18:08 42.45494 -2.88240 8201 ft 284 kts 352°
2026-05-04 18:09 42.49212 -2.89728 7592 ft 278 kts 339°
2026-05-04 18:09 42.52857 -2.91324 6961 ft 276 kts 339°
2026-05-04 18:10 42.54679 -2.92116 6655 ft 273 kts 340°
2026-05-04 18:10 42.56467 -2.92879 6459 ft 264 kts 340°
2026-05-04 18:10 42.58205 -2.93642 6339 ft 259 kts 340°
2026-05-04 18:10 42.59891 -2.94367 6215 ft 250 kts 341°
2026-05-04 18:11 42.61522 -2.95065 6101 ft 242 kts 341°
2026-05-04 18:11 42.63112 -2.95676 5997 ft 234 kts 351°
2026-05-04 18:11 42.64677 -2.95292 5886 ft 232 kts 27°
2026-05-04 18:11 42.66016 -2.94084 5717 ft 228 kts 32°
2026-05-04 18:12 42.67304 -2.92914 5564 ft 218 kts 31°
2026-05-04 18:12 42.68545 -2.91793 5365 ft 209 kts 31°
2026-05-04 18:12 42.69717 -2.90706 5157 ft 204 kts 32°
2026-05-04 18:12 42.70858 -2.89585 4943 ft 200 kts 33°
2026-05-04 18:13 42.71965 -2.88492 4748 ft 194 kts 33°
2026-05-04 18:13 42.73065 -2.87444 4559 ft 192 kts 30°
2026-05-04 18:13 42.75213 -2.85393 4223 ft 181 kts 33°
2026-05-04 18:14 42.76190 -2.84419 4180 ft 171 kts 33°
2026-05-04 18:14 42.77167 -2.83452 4023 ft 175 kts 33°
2026-05-04 18:14 42.78133 -2.82495 3813 ft 168 kts 33°
2026-05-04 18:15 42.79905 -2.80739 3389 ft 147 kts 36°
2026-05-04 18:15 42.81489 -2.79169 3007 ft 137 kts 36°
2026-05-04 18:15 42.82269 -2.78398 2834 ft 140 kts 36°
2026-05-04 18:16 42.83061 -2.77611 2650 ft 142 kts 36°
2026-05-04 18:16 42.83873 -2.76802 2455 ft 146 kts 36°
2026-05-04 18:16 42.84686 -2.75989 2261 ft 148 kts 36°
2026-05-04 18:17 42.86342 -2.74353 1862 ft 144 kts 35°
2026-05-04 18:17 42.87143 -2.73566 1695 ft 140 kts 35°
2026-05-04 18:17 42.88375 -2.72359 1675 ft 46 kts 36°
2026-05-04 18:18 42.88538 -2.72206 1674 ft 23 kts 28°
2026-05-04 18:18 42.88682 -2.72162 1674 ft 17 kts 356°
2026-05-04 18:18 42.88753 -2.72214 1679 ft 10 kts 297°
2026-05-04 18:18 42.88739 -2.72300 1676 ft 10 kts 222°
2026-05-04 18:19 42.88631 -2.72408 1684 ft 9 kts 215°
2026-05-04 18:19 42.88579 -2.72458 1683 ft 9 kts 215°
2026-05-04 18:19 42.88518 -2.72518 1688 ft 12 kts 216°
2026-05-04 18:20 42.88440 -2.72596 1682 ft 15 kts 216°
2026-05-04 18:20 42.88344 -2.72689 1684 ft 18 kts 216°
2026-05-04 18:20 42.88241 -2.72790 1685 ft 18 kts 216°
2026-05-04 18:20 42.88142 -2.72888 1678 ft 17 kts 216°
2026-05-04 18:21 42.88046 -2.72982 1680 ft 17 kts 216°
2026-05-04 18:21 42.87954 -2.73073 1678 ft 16 kts 216°
2026-05-04 18:21 42.87865 -2.73160 1676 ft 15 kts 216°
2026-05-04 18:21 42.87786 -2.73239 1676 ft 10 kts 216°
2026-05-04 18:22 42.87762 -2.73319 1676 ft 10 kts 287°
2026-05-04 18:22 42.87799 -2.73397 1676 ft 10 kts 306°
2026-05-04 18:22 42.87806 -2.73478 1676 ft 9 kts 230°
2026-05-04 18:22 42.87754 -2.73530 1676 ft 9 kts 216°
2026-05-04 18:23 42.87707 -2.73587 1676 ft 9 kts 227°
2026-05-04 18:23 42.87660 -2.73639 1681 ft 8 kts 215°
2026-05-04 18:23 42.87645 -2.73686 1676 ft 3 kts 320°
2026-05-04 18:23 42.87664 -2.73672 1682 ft 3 kts 40°
2026-05-04 18:24 42.87667 -2.73670 1676 ft 0 kts 37°
2026-05-04 18:24 42.87670 -2.73667 1676 ft 0 kts 36°